Mobridge, SD

7:41 AM CST on November 12, 2019 (GMT -0600)
Mobridge Municipal

Weather History for KMBG - October, 2019

Change the Weather History Date:

Monday, October 21, 2019

  Actual Average Record
Temperature  
Mean Temperature 43 °F 45 °F  
Max Temperature 50 °F 58 °F 89 °F (1947)
Min Temperature 36 °F 33 °F 10 °F (1930)
Degree Days  
Heating Degree Days 22    
Month to date heating degree days 423  
Since 1 July heating degree days 550  
Cooling Degree Days 0    
Month to date cooling degree days 0  
Year to date cooling degree days 648  
Moisture  
Dew Point 38 °F    
Average Humidity 81    
Maximum Humidity 93    
Minimum Humidity 61    
Precipitation  
Precipitation 0.96 in 0.05 in 0.32 in (2008)
Month to date precipitation 3.34 1.10  
Year to date precipitation 27.49 16.55  
Snow  
Snow 0.00 in - 1.30 in (2002)
Month to date snowfall 5.6  
Since 1 July snowfall 5.6  
Snow Depth 0.00 in    
Sea Level Pressure  
Sea Level Pressure 29.69 in    
Wind  
Wind Speed 20 mph ()    
Max Wind Speed 31 mph    
Max Gust Speed 46 mph    
Visibility 7.1 miles    
Events Rain    
T = Trace of Precipitation, MM = Missing Value Source: Averaged Metar Reports

Daily Weather History Graph

Daily Weather History Graph

Search for Another Location

Airport or City:

Astronomy

Oct. 21, 2019 Rise Set
Actual Time 8:05 AM CDT 6:46 PM CDT
Civil Twilight 7:35 AM CDT 7:16 PM CDT
Nautical Twilight 7:01 AM CDT 7:50 PM CDT
Astronomical Twilight 6:26 AM CDT 8:24 PM CDT
Moon No Moon Rise 3:35 PM CDT (10/21)
Length of Visible Light 11h 40m
Length of Day
10h 40m
Waning Gibbous, 48% of the Moon is Illuminated
Oct 21
Waning Gibbous
Oct 27
New
Nov 4
First Quarter
Nov 12
Full
Nov 19
Last Quarter

Hourly Weather History & Observations

Time (CDT) Temp. Windchill Dew Point Humidity Pressure Visibility Wind Dir Wind Speed Gust Speed Precip Events Conditions
12:22 AM 46.0 °F 39.3 °F 42.1 °F 86% 29.57 in 6.0 mi NNE 16.1 mph 31.1 mph 0.06 in Rain Rain
12:48 AM 44.6 °F 35.7 °F 42.8 °F 93% 29.56 in 4.0 mi North 24.2 mph 43.7 mph 0.10 in Rain Rain
12:52 AM 45.0 °F 37.4 °F 42.1 °F 90% 29.58 in 4.0 mi North 18.4 mph 36.8 mph 0.10 in Rain Rain
1:05 AM 45.0 °F 36.2 °F 42.1 °F 90% 29.56 in 3.0 mi North 24.2 mph 40.3 mph 0.01 in Rain Rain
1:15 AM 45.0 °F 36.4 °F 42.1 °F 90% 29.55 in 4.0 mi North 23.0 mph 38.0 mph 0.05 in Rain Rain
1:52 AM 45.0 °F 35.8 °F 41.0 °F 86% 29.57 in 3.0 mi North 26.5 mph 42.6 mph 0.18 in Rain Rain
2:52 AM 44.1 °F 35.7 °F 41.0 °F 89% 29.58 in 6.0 mi North 20.7 mph 39.1 mph 0.11 in Rain Rain
3:05 AM 44.1 °F 35.2 °F 39.9 °F 85% 29.56 in 6.0 mi North 23.0 mph 36.8 mph 0.01 in Rain Rain
3:26 AM 44.1 °F 34.6 °F 39.9 °F 85% 29.57 in 5.0 mi North 26.5 mph 41.4 mph 0.07 in Rain Rain
3:49 AM 44.6 °F 36.4 °F 39.2 °F 81% 29.57 in 6.0 mi North 20.7 mph 35.7 mph N/A Rain Rain
3:52 AM 44.1 °F 34.6 °F 39.9 °F 85% 29.58 in 6.0 mi North 26.5 mph 39.1 mph 0.12 in Rain Rain
4:06 AM 44.1 °F 35.2 °F 39.9 °F 85% 29.57 in 5.0 mi North 23.0 mph 40.3 mph 0.01 in Rain Rain
4:16 AM 44.1 °F 34.2 °F 39.9 °F 85% 29.57 in 6.0 mi North 28.8 mph 40.3 mph 0.04 in Rain Light Rain
4:23 AM 44.1 °F 35.2 °F 39.9 °F 85% 29.56 in 7.0 mi North 23.0 mph 40.3 mph 0.04 in Rain Light Rain
4:40 AM 44.1 °F 34.6 °F 39.9 °F 85% 29.57 in 8.0 mi North 26.5 mph 35.7 mph 0.06 in Rain Light Rain
4:52 AM 44.1 °F 35.2 °F 39.9 °F 85% 29.61 in 7.0 mi North 23.0 mph 36.8 mph 0.07 in Rain Rain
5:59 AM 43.0 °F 32.9 °F 39.0 °F 86% 29.62 in 5.0 mi North 27.6 mph 41.4 mph 0.00 in Rain Rain
6:25 AM 43.0 °F 33.5 °F 39.0 °F 86% 29.64 in 6.0 mi North 24.2 mph 39.1 mph 0.06 in Rain Rain
6:52 AM 43.0 °F 34.2 °F 37.9 °F 82% 29.67 in 7.0 mi North 20.7 mph 40.3 mph 0.11 in Rain Rain
7:39 AM 42.1 °F 31.7 °F 37.9 °F 85% 29.66 in 7.0 mi North 27.6 mph 39.1 mph 0.05 in Rain Rain
7:52 AM 42.1 °F 32.3 °F 37.0 °F 82% 29.69 in 7.0 mi North 24.2 mph 42.6 mph 0.05 in Rain Rain
8:13 AM 42.1 °F 31.9 °F 37.0 °F 82% 29.67 in 7.0 mi North 26.5 mph 40.3 mph 0.04 in Rain Rain
8:52 AM 42.1 °F 32.8 °F 37.0 °F 82% 29.70 in 10.0 mi North 21.9 mph 42.6 mph 0.09 in Rain Light Rain
9:03 AM 42.1 °F 31.9 °F 37.0 °F 82% 29.68 in 10.0 mi North 26.5 mph 42.6 mph 0.00 in Rain Light Rain
9:12 AM 42.1 °F 32.3 °F 37.0 °F 82% 29.69 in 9.0 mi North 24.2 mph 43.7 mph 0.00 in Rain Light Rain
9:52 AM 42.1 °F 31.9 °F 37.9 °F 85% 29.72 in 6.0 mi North 26.5 mph 43.7 mph 0.03 in Rain Rain
10:52 AM 42.1 °F 31.5 °F 37.9 °F 85% 29.73 in 8.0 mi North 28.8 mph 42.6 mph 0.08 in Rain Light Rain
11:52 AM 43.0 °F 33.8 °F 37.9 °F 82% 29.74 in 10.0 mi North 23.0 mph 36.8 mph 0.00 in   Overcast
12:52 PM 43.0 °F 33.5 °F 37.9 °F 82% 29.76 in 9.0 mi North 24.2 mph 36.8 mph 0.00 in Rain Light Rain
1:52 PM 43.0 °F 34.8 °F 37.9 °F 82% 29.78 in 10.0 mi NNW 18.4 mph 32.2 mph 0.02 in Rain Light Rain
1:59 PM 43.0 °F 34.8 °F 37.9 °F 82% 29.74 in 10.0 mi NNW 18.4 mph 31.1 mph 0.00 in   Overcast
2:24 PM 43.0 °F 33.3 °F 37.0 °F 80% 29.74 in 10.0 mi NNW 25.3 mph 36.8 mph 0.00 in Rain Light Rain
2:52 PM 44.1 °F 35.4 °F 37.0 °F 76% 29.77 in 10.0 mi NNW 21.9 mph 39.1 mph 0.00 in   Overcast
3:52 PM 46.0 °F 38.5 °F 36.0 °F 68% 29.79 in 10.0 mi NNW 19.6 mph 31.1 mph N/A   Overcast
4:52 PM 48.0 °F - 36.0 °F 63% 29.81 in 10.0 mi NNW 18.4 mph 33.4 mph N/A   Mostly Cloudy
5:52 PM 46.9 °F - 36.0 °F 66% 29.83 in - North 17.3 mph 31.1 mph N/A   Mostly Cloudy
6:52 PM 44.1 °F 36.5 °F 33.1 °F 65% 29.84 in 10.0 mi NNW 17.3 mph 26.5 mph N/A   Clear
7:52 PM 42.1 °F 34.5 °F 32.0 °F 67% 29.87 in - NNW 15.0 mph 26.5 mph N/A   Clear
8:52 PM 41.0 °F 33.1 °F 30.9 °F 67% 29.89 in - NNW 15.0 mph 25.3 mph N/A   Clear
9:52 PM 37.9 °F 30.0 °F 30.0 °F 73% 29.91 in - NNW 12.7 mph - N/A   Clear
10:52 PM 37.0 °F 28.5 °F 28.9 °F 73% 29.91 in - NNW 13.8 mph - N/A   Clear
11:52 PM 36.0 °F 28.5 °F 28.9 °F 76% 29.91 in - NNW 10.4 mph 19.6 mph N/A   Clear